Location: Zagreb
(45.8000°N, 16.0000°E)
Time: 08:43:29
(UTC+02:00)

Courier 1B Rocket - Pass Details

Date: 16 August 2022
Orbit: 920 x 1202 km, 28.2° (Epoch: 25 September)

Event Time Altitude Azimuth Distance (km) Brightness Sun altitude
Rises 18:58:33 0° 244° (WSW) 3,549 8.9 10.0°
Reaches altitude 10° 19:03:13 10° 212° (SSW) 2,626 7.6 9.2°
Maximum altitude 19:05:10 11° 194° (SSW) 2,533 7.3 8.8°
Drops below altitude 10° 19:07:08 10° 175° (S) 2,658 7.2 8.5°
Sets 19:11:59 0° 144° (SE) 3,661 7.6 7.7°
